Location: ????????
(55.6333°N, 37.7000°E)
Time: 03:08:17
(UTC+00:00)

Cosmos 1833 - Pass Details

Date: 19 May 2025
Orbit: 830 x 868 km, 70.9° (Epoch: 15 June)

Event Time Altitude Azimuth Distance (km) Brightness Sun altitude
Exits shadow 22:42:19 15° 221° (SW) 2,157 5.8 -12.7°
Maximum altitude 22:47:09 76° 306° (NW) 894 4.4 -12.4°
Drops below altitude 10° 22:52:59 10° 33° (NNE) 2,522 8.1 -12.2°
Sets 22:55:28 0° 35° (NE) 3,465 9.1 -12.0°
